Home   Weather   Medford   Past weeks
Flag for USA

Past Weather in Medford, Oregon, USA — Yesterday and Last 2 Weeks

Now
58 °F

Scattered clouds.


Feels Like: 58 °F
Forecast: 65 / 45 °F
Wind: No wind

Location: Rogue Valley International Airport

Current Time: May 25, 2019 at 12:22:11 pm

Latest Report: May 25, 2019 at 11:53 am


Visibility: 10 mi

Pressure: 29.92 "Hg

Humidity: 41%

Dew Point: 34 °F

Location of MedfordLocation

Past Weather in Medford — Graph

°F

Medford Temperature Yesterday

Maximum temperature yesterday: 76 °F (at 4:53 pm)
Minimum temperature yesterday: 50 °F (at 4:53 am)
Average temperature yesterday: 62 °F

High & Low Weather Summary for the Past Weeks

 TemperatureHumidityPressure
High89 °F (May 11, 5:53 pm)100% (May 20, 3:21 am)30.03 "Hg (May 20, 3:21 am)
Low42 °F (May 19, 4:53 am)9% (May 10, 6:53 pm)29.44 "Hg (May 16, 1:53 am)
Average59 °F60%29.84 "Hg
* Reported May 10 10:53 am — May 25 10:53 am, Medford. Weather by CustomWeather, © 2019

Note: Actual official high and low records may vary slightly from our data, if they occured in-between our weather recording intervals... More about our weather records

Advertising

Medford Weather History for the Previous 24 Hours

Scroll right to see more
 ConditionsComfort  
Time TempWeatherWind HumidityBarometerVisibility
10:53 am
Sat, May 25
56 °FScattered clouds.6 mph44%29.93 "Hg10 mi
9:53 am54 °FScattered clouds.3 mph49%29.96 "Hg10 mi
8:53 am52 °FScattered clouds.5 mph53%29.98 "Hg10 mi
7:53 am51 °FScattered clouds.No wind54%29.98 "Hg10 mi
6:53 am49 °FScattered clouds.5 mph61%29.99 "Hg10 mi
5:53 am49 °FPartly sunny.6 mph61%29.98 "Hg10 mi
4:53 am49 °FOvercast.3 mph59%29.99 "Hg10 mi
3:53 am50 °FOvercast.6 mph57%29.99 "Hg10 mi
2:53 am50 °FOvercast.5 mph61%30.00 "Hg10 mi
1:53 am50 °FOvercast.3 mph59%29.99 "Hg10 mi
12:53 am50 °FPassing clouds.6 mph54%30.01 "Hg10 mi
11:53 pm
Fri, May 24
52 °FOvercast.7 mph50%30.01 "Hg10 mi
10:53 pm53 °FOvercast.12 mph51%30.01 "Hg10 mi
9:53 pm54 °FPassing clouds.9 mph55%29.99 "Hg10 mi
8:53 pm58 °FClear.10 mph50%29.95 "Hg10 mi
7:53 pm64 °FScattered clouds.15 mph35%29.91 "Hg10 mi
6:53 pm69 °FSunny.16 mph33%29.88 "Hg10 mi
5:53 pm72 °FPassing clouds.15 mph33%29.87 "Hg10 mi
4:53 pm76 °FScattered clouds.12 mph31%29.87 "Hg10 mi
3:53 pm74 °FScattered clouds.5 mph31%29.88 "Hg10 mi
2:53 pm74 °FSunny.13 mph29%29.90 "Hg10 mi
1:53 pm73 °FScattered clouds.10 mph32%29.93 "Hg10 mi
12:53 pm72 °FScattered clouds.5 mph27%29.96 "Hg10 mi
Weather by CustomWeather, © 2019

See weather overview